Lexington Weather

Lexington, Massachusetts, USA

50°F
12/8/2022 1:49pm 
  • Lexington Conditions: Clear
  • Temperature: 49.8°F / 9.9°C 
  • Dew Point: 36.1°F 
  • Relative Humidity: 59
  • Wind: Wind from NNW NNW 4 mph, 10-min avg: 4 mph, gust: 10 mph
  • Barometer: 30.06 in Steady
  • Visibility: 10 miles
  • Rain Today: 0.00 in
  •   

Warning: Undefined variable $rc in /homepages/6/d276339138/htdocs/weather/20190804/ssi/nwsProduct.php on line 323

Warning: Undefined variable $rc in /homepages/6/d276339138/htdocs/weather/20190804/ssi/nwsProduct.php on line 325

Warning: Undefined variable $rc in /homepages/6/d276339138/htdocs/weather/20190804/ssi/nwsProduct.php on line 323

Warning: Undefined variable $rc in /homepages/6/d276339138/htdocs/weather/20190804/ssi/nwsProduct.php on line 325

Warning: Undefined variable $rc in /homepages/6/d276339138/htdocs/weather/20190804/ssi/nwsProduct.php on line 323

Warning: Undefined variable $rc in /homepages/6/d276339138/htdocs/weather/20190804/ssi/nwsProduct.php on line 325

Warning: Undefined variable $rc in /homepages/6/d276339138/htdocs/weather/20190804/ssi/nwsProduct.php on line 323

Warning: Undefined variable $rc in /homepages/6/d276339138/htdocs/weather/20190804/ssi/nwsProduct.php on line 325

Warning: Undefined variable $rc in /homepages/6/d276339138/htdocs/weather/20190804/ssi/nwsProduct.php on line 323

Warning: Undefined variable $rc in /homepages/6/d276339138/htdocs/weather/20190804/ssi/nwsProduct.php on line 325

Warning: Undefined variable $rc in /homepages/6/d276339138/htdocs/weather/20190804/ssi/nwsProduct.php on line 323

Warning: Undefined variable $rc in /homepages/6/d276339138/htdocs/weather/20190804/ssi/nwsProduct.php on line 325

Warning: Undefined variable $rc in /homepages/6/d276339138/htdocs/weather/20190804/ssi/nwsProduct.php on line 323

Warning: Undefined variable $rc in /homepages/6/d276339138/htdocs/weather/20190804/ssi/nwsProduct.php on line 325

Regional Weather Roundup
for Boston, MA

        
000
ASUS41 KBOX 042110
RWRBOX

REGIONAL WEATHER ROUNDUP
NATIONAL WEATHER SERVICE BOSTON/NORTON MA
400 PM EST SUN DEC 04 2022

NOTE:  "FAIR" INDICATES FEW OR NO CLOUDS BELOW 12,000 FEET WITH NO 
SIGNIFICANT WEATHER AND/OR OBSTRUCTIONS TO VISIBILITY.

MAZALL-042200-
EASTERN MASSACHUSETTS
  
CITY           SKY/WX    TMP DP  RH WIND       PRES   REMARKS
BOSTON         CLOUDY    41  18  39 NW9       30.15R                  
BEVERLY        CLOUDY    37  19  48 N3        30.13R                  
LAWRENCE       CLOUDY    38  18  44 N5        30.16R                  
BEDFORD        CLOUDY    39  20  46 NW3       30.13R                  
NORWOOD        CLOUDY    41  19  41 N3        30.15R                  
MARSHFIELD       N/A     39  19  45 CALM      30.14R                  
PLYMOUTH       MOCLDY    41  21  44 CALM      30.13R                  
TAUNTON          N/A    N/A N/A N/A MISG      30.15R                  
NEW BEDFORD    CLOUDY    41  24  51 CALM      30.14R                  
$$

MAZALL-042200-
CAPE COD AND THE ISLANDS
  
CITY           SKY/WX    TMP DP  RH WIND       PRES   REMARKS
FALMOUTH       CLEAR     39  19  45 NW6       30.14R                  
HYANNIS        CLOUDY    39  24  55 N3        30.13R                  
CHATHAM        CLOUDY    41  24  51 CALM      30.15R                  
PROVINCETOWN   MOCLDY    40  22  48 NW8       30.15R                  
NANTUCKET      MOCLDY    42  26  53 N5        30.14R                  
MARTHAS VNYRD  CLOUDY    42  23  46 CALM      30.14R                  
$$
 
MAZALL-042200-
CENTRAL AND WESTERN MASSACHUSETTS
  
CITY           SKY/WX    TMP DP  RH WIND       PRES   REMARKS
WORCESTER      CLOUDY    36  18  48 W6        30.11R WCI  31          
FITCHBURG      CLOUDY    37  16  42 W5        30.15R                  
ORANGE         CLOUDY    36  18  48 W6        30.14R WCI  31          
SPRINGFIELD    CLOUDY    37  19  47 W8        30.14R WCI  31          
WESTFIELD      CLOUDY    37  19  48 W6        30.16R                  
NORTH ADAMS    MOCLDY    35  21  56 W8        30.13R WCI  29          
PITTSFIELD     CLOUDY    32  19  58 N3        30.10S                  
$$
 
RIZALL-042200-
RHODE ISLAND
  
CITY           SKY/WX    TMP DP  RH WIND       PRES   REMARKS
PROVIDENCE     MOCLDY    40  21  46 W7        30.16R                  
NEWPORT        CLOUDY    39  22  50 NW5       30.14R                  
BLOCK ISLAND   MOCLDY    40  22  48 VRB3      30.16R                  
SMITHFIELD     MOCLDY    38  20  48 W7        30.14R                  
WESTERLY       CLOUDY    41  22  46 CALM      30.16R                  
$$
 
CTZALL-042200-
CONNECTICUT
  
CITY           SKY/WX    TMP DP  RH WIND       PRES   REMARKS
BRADLEY INTL   CLOUDY    39  19  44 NW7       30.17R                  
HARTFORD       CLOUDY    40  20  44 N5        30.18R                  
BRIDGEPORT     CLOUDY    42  20  41 N6        30.18R                  
DANBURY        CLOUDY    41  17  38 NW3       30.18R                  
GROTON         CLOUDY    41  23  48 NW7       30.16R                  
NEW HAVEN      CLOUDY    42  24  49 NE7       30.17R                  
CHESTER        FAIR      37  19  48 NW6       30.16R                  
MERIDEN        CLOUDY    40  21  46 N6        30.17R                  
WILLIMANTIC    CLOUDY    38  21  50 NW8       30.17R                  
OXFORD         CLOUDY    36  21  54 CALM      30.15R                  
$$

MEZ002-015-021-024-NHZ003-005-008-011-012-014-VTZ005-008-042200-
NORTHERN NEW ENGLAND
  
CITY           SKY/WX    TMP DP  RH WIND       PRES   REMARKS
PORTLAND ME    CLOUDY    35  16  45 NW9       30.11R WCI  28          
BANGOR ME      PTCLDY    31  13  47 NW10      30.10R WCI  22          
CONCORD NH     CLOUDY    34  16  47 VRB5      30.14R WCI  30          
MANCHESTER NH  CLOUDY    37  18  46 N8        30.13R WCI  31          
NASHUA NH      CLOUDY    38  17  42 CALM      30.15R                  
PORTSMOUTH NH  CLOUDY    35  16  45 NW9       30.14R WCI  28          
JAFFREY NH     CLOUDY    36  16  44 W3        30.11R                  
KEENE NH       CLOUDY    35  21  56 CALM        N/A                   
BURLINGTON VT  MOCLDY    33  17  51 S7        30.09F WCI  27          
MT. WASHINGTON FOG        3   3 100 W47         N/A  VSB 1/16WCI -26  
$$

NYZ052-076-042200-
EASTERN NEW YORK
  
CITY           SKY/WX    TMP DP  RH WIND       PRES   REMARKS
ALBANY         MOCLDY    37  21  52 CALM      30.14F                  
NEW YORK CITY  MOCLDY    45  20  36 NW10      30.17R                  
$$
 
ANZALL-042200-
MARINE OBSERVATIONS
  
STATION/POSITION TIME  TEMP    WIND        PRES    VSBY  WAVE
                       AIR SEA DIR/SP/G                  HT/PER
                 (UTC) (F)     (DEG/KT/KT) (MB)    (MI)  (FT/S)
BOSTON BUOY      2050      51  300/ 10/ 14 1021.1
BUZZARDS BAY     2000   41     320/  9/ 10 1020.9R
NANTUCKET SOUND  2050   42 49  360/  6/ 10 1020.5R         1/ 2
MASS BAY-STELLWA 1904   41 50  330/ 12/ 16 1018.6R  1 7/8  2/ 3
ISLE OF SHOALS   2000   38     310/ 17/ 21 1019.2R
S OF BLOCK IS    2056      54                N/A           3/ 7
$$

......................KEY.........................
  SKY/WX - SKY CONDITION/PRESENT WEATHER
  TMP    - TEMPERATURE IN FAHRENHEIT
  DWPT   - DEWPOINT IN FAHRENHEIT
  RH     - RELATIVE HUMIDITY IN PERCENT
  WIND   - DIRECTION AND SPEED IN MPH
  PRES   - MEAN SEA LEVEL PRESSURE IN INCHES OF HG
  WCI    - WIND CHILL INDEX
  VSB    - VISIBILITY IN MILES
  HX     - HEAT INDEX
  TC     - TEMPERATURE IN CELSIUS
  VRB    - VARIABLE WIND DIRECTION
  N/A    - NOT AVAILABLE
  
      

Other recent Regional Weather Roundups

Thu Dec 8, 1:10pm

Thu Dec 8, 12:10pm

Thu Dec 8, 11:10am

Thu Dec 8, 10:10am

Thu Dec 8, 9:10am

Thu Dec 8, 8:10am

Thu Dec 8, 7:10am

Thu Dec 8, 6:10am

Thu Dec 8, 5:10am

Thu Dec 8, 4:10am

Thu Dec 8, 3:10am

Thu Dec 8, 2:10am

Thu Dec 8, 1:10am

Thu Dec 8, 12:10am

Wed Dec 7, 11:10pm

Wed Dec 7, 10:10pm

Wed Dec 7, 9:10pm

Wed Dec 7, 8:10pm

Wed Dec 7, 7:10pm

Wed Dec 7, 6:10pm

Wed Dec 7, 5:10pm

Wed Dec 7, 4:10pm

Wed Dec 7, 3:10pm

Wed Dec 7, 2:10pm

Wed Dec 7, 1:10pm

Wed Dec 7, 12:10pm

Wed Dec 7, 11:10am

Wed Dec 7, 10:10am

Wed Dec 7, 9:10am

Wed Dec 7, 8:10am

Wed Dec 7, 7:10am

Wed Dec 7, 6:10am

Wed Dec 7, 5:10am

Wed Dec 7, 4:10am

Wed Dec 7, 3:10am

Wed Dec 7, 2:10am

Wed Dec 7, 1:10am

Wed Dec 7, 12:10am

Tue Dec 6, 11:10pm

Tue Dec 6, 10:10pm

Tue Dec 6, 9:10pm

Tue Dec 6, 8:10pm

Tue Dec 6, 7:10pm

Tue Dec 6, 6:10pm

Tue Dec 6, 5:10pm

Tue Dec 6, 4:10pm

Tue Dec 6, 3:10pm

Tue Dec 6, 2:10pm

Tue Dec 6, 1:10pm

Tue Dec 6, 12:10pm

Tue Dec 6, 11:10am

Tue Dec 6, 10:10am

Tue Dec 6, 9:10am

Tue Dec 6, 8:10am

Tue Dec 6, 7:10am

Tue Dec 6, 6:10am

Tue Dec 6, 5:10am

Tue Dec 6, 4:10am

Tue Dec 6, 3:10am

Tue Dec 6, 2:10am

Tue Dec 6, 1:10am

Tue Dec 6, 12:10am

Mon Dec 5, 11:10pm

Mon Dec 5, 10:10pm

Mon Dec 5, 9:10pm

Mon Dec 5, 8:10pm

Mon Dec 5, 7:10pm

Mon Dec 5, 6:10pm

Mon Dec 5, 5:10pm

Mon Dec 5, 4:10pm

Mon Dec 5, 3:10pm

Mon Dec 5, 2:10pm

Mon Dec 5, 1:10pm

Mon Dec 5, 12:10pm

Mon Dec 5, 11:10am

Mon Dec 5, 10:10am

Mon Dec 5, 9:10am

Mon Dec 5, 8:10am

Mon Dec 5, 7:10am

Mon Dec 5, 6:10am

Mon Dec 5, 5:10am

Mon Dec 5, 4:10am

Mon Dec 5, 3:10am

Mon Dec 5, 2:10am

Mon Dec 5, 1:10am

Mon Dec 5, 12:10am

Sun Dec 4, 11:10pm

Sun Dec 4, 10:10pm

Sun Dec 4, 9:10pm

Sun Dec 4, 8:10pm

Sun Dec 4, 7:10pm

Sun Dec 4, 6:10pm

Sun Dec 4, 5:10pm

Sun Dec 4, 3:10pm

Sun Dec 4, 2:10pm

Sun Dec 4, 1:10pm

Sun Dec 4, 12:10pm

Sun Dec 4, 11:10am

Sun Dec 4, 10:10am

Sun Dec 4, 9:10am

Sun Dec 4, 8:10am

Sun Dec 4, 7:10am

Sun Dec 4, 6:10am

Sun Dec 4, 5:10am

Sun Dec 4, 4:10am

Sun Dec 4, 3:10am

Sun Dec 4, 2:10am

Sun Dec 4, 1:10am

Sun Dec 4, 12:10am

Sat Dec 3, 11:10pm

Sat Dec 3, 10:10pm

Sat Dec 3, 9:10pm

Sat Dec 3, 8:10pm

Sat Dec 3, 7:10pm

Sat Dec 3, 6:10pm

Sat Dec 3, 5:10pm

Sat Dec 3, 4:10pm

Sat Dec 3, 3:10pm

Sat Dec 3, 2:10pm

Sat Dec 3, 1:10pm

Sat Dec 3, 12:10pm

Sat Dec 3, 11:10am

Sat Dec 3, 10:10am

Sat Dec 3, 9:10am

Sat Dec 3, 8:10am

Sat Dec 3, 7:10am

Sat Dec 3, 6:10am

Sat Dec 3, 5:10am

Sat Dec 3, 4:10am

Sat Dec 3, 3:10am

Sat Dec 3, 2:10am

Sat Dec 3, 1:10am

Sat Dec 3, 12:10am

Fri Dec 2, 11:10pm

Fri Dec 2, 10:10pm

Fri Dec 2, 9:10pm

Fri Dec 2, 8:10pm

Fri Dec 2, 7:10pm

Fri Dec 2, 6:10pm

Fri Dec 2, 5:10pm

Fri Dec 2, 4:10pm

Fri Dec 2, 3:10pm

Fri Dec 2, 2:10pm

Fri Dec 2, 1:10pm

Fri Dec 2, 12:10pm

Fri Dec 2, 11:10am

Fri Dec 2, 10:10am

Fri Dec 2, 9:10am

Fri Dec 2, 8:10am

Fri Dec 2, 7:10am

Fri Dec 2, 6:10am

Fri Dec 2, 5:10am

Fri Dec 2, 4:10am

Fri Dec 2, 3:10am

Fri Dec 2, 2:10am

Fri Dec 2, 1:10am

Fri Dec 2, 12:10am

Thu Dec 1, 11:10pm

Thu Dec 1, 10:10pm

Thu Dec 1, 9:10pm

Thu Dec 1, 8:10pm

Thu Dec 1, 7:10pm

Thu Dec 1, 6:10pm

Thu Dec 1, 5:10pm

Thu Dec 1, 4:10pm

Thu Dec 1, 3:10pm

Thu Dec 1, 2:10pm

Meta data:

ID: aec0e322-f3f1-4409-8127-6aeeb6e56bdf
Link: https://api.weather.gov/products/aec0e322-f3f1-4409-8127-6aeeb6e56bdf